| time (UTC) | temp F | wind direction | speed MPH | gust MPH | rain 1hr in | rain 24hr in | rain mn in | humidity % | barometer mb |
| 20260904215003 | 72 | 0 | 0.0 | 0.0 | 0.00 | 0.17 | 0.00 | 81 | 1012.8 |
| 20260904214503 | 72 | 0 | 0.0 | 0.0 | 0.00 | 0.17 | 0.00 | 84 | 1012.8 |
| 20260904214217 | 72 | 0 | 0.0 | 0.0 | 0.00 | 0.17 | 0.00 | 83 | 1012.9 |
| 20260904213503 | 72 | 0 | 0.0 | 0.0 | 0.00 | 0.17 | 0.00 | 81 | 1012.8 |
| 20260904213003 | 72 | 0 | 0.0 | 0.0 | 0.00 | 0.18 | 0.00 | 81 | 1012.8 |
| 20260904212718 | 72 | 0 | 0.0 | 0.0 | 0.00 | 0.18 | 0.00 | 81 | 1012.9 |
| 20260904212003 | 72 | 0 | 0.0 | 0.0 | 0.00 | 0.18 | 0.00 | 83 | 1012.9 |
| 20260904211503 | 72 | 0 | 0.0 | 0.0 | 0.00 | 0.18 | 0.00 | 83 | 1013.0 |
| 20260904211003 | 72 | 0 | 0.0 | 0.0 | 0.00 | 0.18 | 0.00 | 83 | 1013.1 |
| 20260904210503 | 72 | 0 | 0.0 | 0.0 | 0.00 | 0.18 | 0.00 | 80 | 1013.1 |
| 20260904210003 | 73 | 0 | 0.0 | 0.0 | 0.00 | 0.21 | 0.00 | 80 | 1013.2 |
| 20260904205503 | 73 | 0 | 0.0 | 0.0 | 0.00 | 0.21 | 0.00 | 80 | 1013.2 |
| 20260904205003 | 73 | 0 | 0.0 | 0.0 | 0.00 | 0.21 | 0.00 | 78 | 1013.3 |
| 20260904204503 | 74 | 0 | 0.0 | 0.0 | 0.00 | 0.21 | 0.00 | 79 | 1013.3 |
| 20260904204003 | 74 | 109 | 0.0 | 1.0 | 0.00 | 0.21 | 0.00 | 78 | 1013.4 |
| 20260904203503 | 74 | 124 | 0.0 | 2.0 | 0.00 | 0.21 | 0.00 | 78 | 1013.3 |
| 20260904203003 | 74 | 125 | 0.0 | 2.0 | 0.00 | 0.21 | 0.00 | 78 | 1013.3 |
| 20260904202503 | 74 | 99 | 0.0 | 2.0 | 0.00 | 0.21 | 0.00 | 79 | 1013.5 |
| 20260904202003 | 75 | 61 | 0.0 | 2.0 | 0.00 | 0.21 | 0.00 | 78 | 1013.5 |
| 20260904201503 | 75 | 270 | 0.0 | 2.0 | 0.00 | 0.21 | 0.00 | 78 | 1013.6 |
| 20260904201003 | 75 | 298 | 0.0 | 2.0 | 0.00 | 0.21 | 0.00 | 79 | 1013.4 |
| 20260904200503 | 74 | 328 | 0.0 | 2.0 | 0.00 | 0.21 | 0.00 | 81 | 1013.5 |
| 20260904200003 | 74 | 44 | 0.0 | 1.0 | 0.00 | 0.21 | 0.00 | 80 | 1013.5 |
| 20260904195718 | 74 | 44 | 0.0 | 1.0 | 0.00 | 0.21 | 0.00 | 80 | 1013.6 |
| 20260904195003 | 73 | 8 | 0.0 | 3.0 | 0.00 | 0.22 | 0.00 | 83 | 1013.6 |
| 20260904194718 | 73 | 8 | 0.0 | 3.0 | 0.00 | 0.22 | 0.00 | 83 | 1013.7 |
| 20260904194003 | 73 | 41 | 0.0 | 1.0 | 0.00 | 0.22 | 0.00 | 82 | 1013.8 |
| 20260904193503 | 73 | 35 | 0.0 | 1.0 | 0.00 | 0.22 | 0.00 | 80 | 1013.8 |
| 20260904193003 | 73 | 34 | 0.0 | 1.0 | 0.00 | 0.22 | 0.00 | 79 | 1013.9 |
| 20260904192503 | 73 | 71 | 0.0 | 2.0 | 0.00 | 0.22 | 0.00 | 80 | 1013.9 |
| 20260904192003 | 73 | 104 | 0.0 | 2.0 | 0.00 | 0.22 | 0.00 | 79 | 1014.1 |
| 20260904191503 | 73 | 153 | 0.0 | 1.0 | 0.00 | 0.22 | 0.00 | 84 | 1014.1 |
| 20260904191003 | 72 | 168 | 0.0 | 1.0 | 0.00 | 0.22 | 0.00 | 85 | 1014.2 |
| 20260904190503 | 72 | 176 | 0.0 | 1.0 | 0.00 | 0.22 | 0.00 | 83 | 1014.2 |
| 20260904190003 | 72 | 190 | 0.0 | 1.0 | 0.00 | 0.22 | 0.00 | 83 | 1014.2 |
| 20260904185503 | 72 | 190 | 0.0 | 1.0 | 0.00 | 0.22 | 0.00 | 81 | 1014.5 |
| 20260904185218 | 72 | 0 | 0.0 | 0.0 | 0.00 | 0.22 | 0.00 | 81 | 1014.4 |
| 20260904184717 | 72 | 172 | 0.0 | 1.0 | 0.00 | 0.22 | 0.00 | 81 | 1014.5 |
| 20260904184003 | 73 | 81 | 0.0 | 2.0 | 0.00 | 0.22 | 0.00 | 79 | 1014.5 |
| 20260904183503 | 73 | 3 | 0.0 | 2.0 | 0.00 | 0.22 | 0.00 | 77 | 1014.6 |
| 20260904183003 | 73 | 219 | 0.0 | 1.0 | 0.00 | 0.22 | 0.00 | 78 | 1014.6 |
| 20260904182503 | 73 | 188 | 0.0 | 3.0 | 0.00 | 0.22 | 0.00 | 77 | 1014.5 |
| 20260904182003 | 74 | 174 | 0.0 | 3.0 | 0.00 | 0.22 | 0.00 | 79 | 1014.5 |
| 20260904181503 | 74 | 0 | 0.0 | 0.0 | 0.00 | 0.22 | 0.00 | 78 | 1014.6 |
| 20260904181003 | 74 | 166 | 0.0 | 2.0 | 0.00 | 0.22 | 0.00 | 80 | 1014.6 |
| 20260904180503 | 74 | 133 | 0.0 | 3.0 | 0.00 | 0.22 | 0.00 | 79 | 1014.6 |
| 20260904180003 | 74 | 90 | 0.0 | 3.0 | 0.00 | 0.22 | 0.00 | 77 | 1014.6 |
| 20260904175503 | 74 | 30 | 0.0 | 1.0 | 0.00 | 0.22 | 0.00 | 79 | 1014.7 |
| 20260904175003 | 74 | 0 | 0.0 | 0.0 | 0.00 | 0.22 | 0.00 | 79 | 1014.7 |
| 20260904174717 | 74 | 33 | 0.0 | 1.0 | 0.00 | 0.22 | 0.00 | 79 | 1014.6 |
| 20260904174218 | 75 | 135 | 0.0 | 1.0 | 0.00 | 0.22 | 0.00 | 78 | 1014.7 |
| 20260904173503 | 75 | 199 | 0.0 | 1.0 | 0.00 | 0.22 | 0.00 | 78 | 1014.7 |
| 20260904173003 | 75 | 0 | 0.0 | 0.0 | 0.00 | 0.22 | 0.00 | 78 | 1014.9 |
| 20260904172503 | 75 | 158 | 0.0 | 1.0 | 0.00 | 0.22 | 0.00 | 80 | 1015.0 |
| 20260904172003 | 74 | 151 | 0.0 | 1.0 | 0.00 | 0.22 | 0.00 | 76 | 1015.0 |
| 20260904171717 | 74 | 150 | 0.0 | 1.0 | 0.00 | 0.22 | 0.00 | 72 | 1015.0 |
| 20260904171003 | 74 | 132 | 0.0 | 1.0 | 0.00 | 0.22 | 0.00 | 76 | 1014.9 |
| 20260904170503 | 74 | 146 | 0.0 | 2.0 | 0.00 | 0.22 | 0.00 | 75 | 1015.0 |
| 20260904170003 | 74 | 204 | 0.0 | 3.0 | 0.00 | 0.22 | 0.00 | 82 | 1015.1 |
| 20260904165503 | 74 | 215 | 0.0 | 3.0 | 0.00 | 0.22 | 0.00 | 82 | 1015.2 |
| 20260904165003 | 73 | 359 | 0.0 | 2.0 | 0.00 | 0.22 | 0.00 | 79 | 1015.4 |
| 20260904164503 | 73 | 28 | 0.0 | 2.0 | 0.00 | 0.22 | 0.00 | 78 | 1015.4 |
| 20260904164218 | 73 | 42 | 0.0 | 2.0 | 0.00 | 0.22 | 0.00 | 81 | 1015.4 |
| 20260904163503 | 73 | 336 | 0.0 | 2.0 | 0.00 | 0.22 | 0.00 | 84 | 1015.4 |
| 20260904163217 | 73 | 221 | 0.0 | 2.0 | 0.00 | 0.22 | 0.00 | 84 | 1015.5 |
| 20260904162503 | 72 | 152 | 1.0 | 3.0 | 0.00 | 0.22 | 0.00 | 83 | 1015.6 |
| 20260904162217 | 72 | 141 | 1.0 | 4.0 | 0.00 | 0.22 | 0.00 | 83 | 1015.7 |
| 20260904161503 | 72 | 167 | 0.0 | 4.0 | 0.00 | 0.22 | 0.00 | 82 | 1015.6 |
| 20260904161003 | 72 | 202 | 0.0 | 2.0 | 0.00 | 0.22 | 0.00 | 87 | 1015.7 |
| 20260904160503 | 72 | 201 | 0.0 | 2.0 | 0.00 | 0.22 | 0.00 | 87 | 1015.9 |
| 20260904160003 | 71 | 201 | 0.0 | 2.0 | 0.00 | 0.22 | 0.00 | 85 | 1015.8 |
| 20260904155503 | 71 | 187 | 1.0 | 3.0 | 0.00 | 0.22 | 0.00 | 85 | 1015.5 |
| 20260904155003 | 71 | 182 | 1.0 | 3.0 | 0.00 | 0.22 | 0.00 | 85 | 1015.5 |
| 20260904154503 | 71 | 27 | 1.0 | 3.0 | 0.00 | 0.22 | 0.00 | 85 | 1015.3 |
| 20260904154003 | 70 | 24 | 1.0 | 3.0 | 0.00 | 0.22 | 0.00 | 82 | 1015.1 |
| 20260904153503 | 70 | 206 | 0.0 | 2.0 | 0.00 | 0.22 | 0.00 | 88 | 1015.2 |
| 20260904153003 | 70 | 192 | 1.0 | 3.0 | 0.00 | 0.22 | 0.00 | 87 | 1015.3 |
| 20260904152503 | 70 | 193 | 1.0 | 3.0 | 0.00 | 0.22 | 0.00 | 88 | 1015.4 |
| 20260904152217 | 70 | 194 | 0.0 | 2.0 | 0.00 | 0.22 | 0.00 | 90 | 1015.4 |
| 20260904151503 | 69 | 196 | 1.0 | 3.0 | 0.00 | 0.22 | 0.00 | 90 | 1015.3 |
| 20260904151217 | 69 | 196 | 1.0 | 3.0 | 0.00 | 0.22 | 0.00 | 90 | 1015.3 |
| 20260904150718 | 69 | 196 | 1.0 | 3.0 | 0.00 | 0.22 | 0.00 | 90 | 1015.4 |
| 20260904150003 | 68 | 195 | 0.0 | 1.0 | 0.00 | 0.22 | 0.00 | 91 | 1015.4 |
| 20260904145503 | 68 | 177 | 1.0 | 3.0 | 0.00 | 0.22 | 0.00 | 92 | 1015.3 |
| 20260904145217 | 68 | 170 | 0.0 | 3.0 | 0.00 | 0.22 | 0.00 | 92 | 1015.3 |
| 20260904144503 | 68 | 42 | 0.0 | 1.0 | 0.00 | 0.22 | 0.00 | 93 | 1015.2 |
| 20260904144217 | 68 | 42 | 0.0 | 1.0 | 0.00 | 0.22 | 0.00 | 93 | 1015.1 |
| 20260904143503 | 68 | 42 | 0.0 | 1.0 | 0.00 | 0.22 | 0.00 | 94 | 1015.1 |
| 20260904143003 | 67 | 39 | 0.0 | 1.0 | 0.00 | 0.22 | 0.00 | 94 | 1015.1 |
| 20260904142503 | 67 | 294 | 0.0 | 1.0 | 0.00 | 0.22 | 0.00 | 94 | 1015.1 |
| 20260904142217 | 67 | 258 | 0.0 | 1.0 | 0.00 | 0.22 | 0.00 | 94 | 1015.1 |
| 20260904141503 | 67 | 224 | 0.0 | 1.0 | 0.00 | 0.22 | 0.00 | 95 | 1015.1 |
| 20260904141003 | 67 | 224 | 0.0 | 1.0 | 0.00 | 0.22 | 0.00 | 96 | 1015.1 |
| 20260904140503 | 67 | 224 | 0.0 | 1.0 | 0.00 | 0.22 | 0.00 | 96 | 1015.1 |
| 20260904140003 | 67 | 0 | 0.0 | 0.0 | 0.00 | 0.22 | 0.00 | 96 | 1015.1 |
| 20260904135718 | 67 | 0 | 0.0 | 0.0 | 0.00 | 0.22 | 0.00 | 96 | 1015.1 |
| 20260904135003 | 66 | 0 | 0.0 | 0.0 | 0.00 | 0.22 | 0.00 | 95 | 1015.2 |
| 20260904134717 | 66 | 0 | 0.0 | 0.0 | 0.00 | 0.22 | 0.00 | 95 | 1015.4 |
| 20260904134003 | 66 | 0 | 0.0 | 0.0 | 0.00 | 0.22 | 0.00 | 95 | 1015.3 |
| 20260904133503 | 66 | 0 | 0.0 | 0.0 | 0.00 | 0.22 | 0.00 | 96 | 1015.3 |
| 20260904133003 | 66 | 0 | 0.0 | 0.0 | 0.00 | 0.22 | 0.00 | 96 | 1015.3 |
| 20260904132503 | 66 | 0 | 0.0 | 0.0 | 0.00 | 0.22 | 0.00 | 96 | 1015.5 |
| 20260904132003 | 66 | 0 | 0.0 | 0.0 | 0.00 | 0.22 | 0.00 | 96 | 1015.5 |
| 20260904131503 | 66 | 0 | 0.0 | 0.0 | 0.00 | 0.22 | 0.00 | 96 | 1015.5 |
| 20260904131003 | 66 | 0 | 0.0 | 0.0 | 0.00 | 0.22 | 0.00 | 96 | 1015.5 |
| 20260904130503 | 66 | 0 | 0.0 | 0.0 | 0.00 | 0.22 | 0.00 | 97 | 1015.6 |
| 20260904130003 | 66 | 0 | 0.0 | 0.0 | 0.00 | 0.22 | 0.00 | 97 | 1015.5 |
| 20260904125503 | 66 | 0 | 0.0 | 0.0 | 0.00 | 0.22 | 0.00 | 97 | 1015.4 |
| 20260904125003 | 65 | 0 | 0.0 | 0.0 | 0.00 | 0.22 | 0.00 | 97 | 1015.4 |
| 20260904124503 | 65 | 0 | 0.0 | 0.0 | 0.00 | 0.22 | 0.00 | 97 | 1015.4 |
| 20260904124003 | 65 | 0 | 0.0 | 0.0 | 0.00 | 0.22 | 0.00 | 97 | 1015.6 |
| 20260904123503 | 65 | 0 | 0.0 | 0.0 | 0.00 | 0.22 | 0.00 | 97 | 1015.7 |
| 20260904123003 | 64 | 0 | 0.0 | 0.0 | 0.00 | 0.22 | 0.00 | 97 | 1015.4 |
| 20260904122717 | 64 | 0 | 0.0 | 0.0 | 0.00 | 0.22 | 0.00 | 97 | 1015.4 |
| 20260904122003 | 64 | 0 | 0.0 | 0.0 | 0.00 | 0.22 | 0.00 | 96 | 1015.3 |
| 20260904121503 | 64 | 0 | 0.0 | 0.0 | 0.00 | 0.22 | 0.00 | 96 | 1015.3 |
| 20260904121003 | 63 | 0 | 0.0 | 0.0 | 0.00 | 0.22 | 0.00 | 96 | 1015.2 |
| 20260904120503 | 63 | 0 | 0.0 | 0.0 | 0.00 | 0.22 | 0.00 | 96 | 1015.2 |
| 20260904120003 | 63 | 0 | 0.0 | 0.0 | 0.00 | 0.22 | 0.00 | 96 | 1015.3 |
| 20260904115503 | 63 | 0 | 0.0 | 0.0 | 0.00 | 0.22 | 0.00 | 96 | 1015.3 |
| 20260904115003 | 63 | 0 | 0.0 | 0.0 | 0.00 | 0.22 | 0.00 | 95 | 1015.2 |
| 20260904114717 | 63 | 0 | 0.0 | 0.0 | 0.00 | 0.22 | 0.00 | 95 | 1015.1 |
| 20260904114003 | 63 | 0 | 0.0 | 0.0 | 0.00 | 0.22 | 0.00 | 95 | 1015.1 |
| 20260904113717 | 63 | 0 | 0.0 | 0.0 | 0.00 | 0.22 | 0.00 | 95 | 1015.1 |
| 20260904113003 | 63 | 0 | 0.0 | 0.0 | 0.00 | 0.22 | 0.00 | 95 | 1015.1 |
| 20260904112503 | 63 | 0 | 0.0 | 0.0 | 0.00 | 0.22 | 0.00 | 95 | 1014.9 |
| 20260904112217 | 63 | 0 | 0.0 | 0.0 | 0.00 | 0.22 | 0.00 | 95 | 1015.0 |
| 20260904111503 | 63 | 0 | 0.0 | 0.0 | 0.00 | 0.22 | 0.00 | 95 | 1014.8 |
| 20260904111003 | 63 | 0 | 0.0 | 0.0 | 0.00 | 0.22 | 0.00 | 95 | 1015.0 |
| 20260904110503 | 63 | 0 | 0.0 | 0.0 | 0.00 | 0.22 | 0.00 | 95 | 1014.7 |
| 20260904110003 | 63 | 0 | 0.0 | 0.0 | 0.00 | 0.22 | 0.00 | 95 | 1014.8 |
| 20260904105503 | 63 | 0 | 0.0 | 0.0 | 0.00 | 0.22 | 0.00 | 95 | 1014.7 |
| 20260904105217 | 63 | 0 | 0.0 | 0.0 | 0.00 | 0.22 | 0.00 | 95 | 1014.6 |
| 20260904104503 | 63 | 0 | 0.0 | 0.0 | 0.00 | 0.22 | 0.00 | 95 | 1014.6 |
| 20260904104003 | 63 | 0 | 0.0 | 0.0 | 0.00 | 0.22 | 0.00 | 95 | 1014.6 |
| 20260904103503 | 64 | 0 | 0.0 | 0.0 | 0.00 | 0.22 | 0.00 | 95 | 1014.6 |
| 20260904103003 | 64 | 0 | 0.0 | 0.0 | 0.00 | 0.22 | 0.00 | 95 | 1014.7 |
| 20260904102503 | 64 | 0 | 0.0 | 0.0 | 0.00 | 0.22 | 0.00 | 95 | 1014.6 |
| 20260904102003 | 64 | 0 | 0.0 | 0.0 | 0.00 | 0.22 | 0.00 | 95 | 1014.7 |
| 20260904101718 | 64 | 0 | 0.0 | 0.0 | 0.00 | 0.22 | 0.00 | 95 | 1014.7 |
| 20260904101003 | 64 | 0 | 0.0 | 0.0 | 0.00 | 0.22 | 0.00 | 95 | 1014.7 |
| 20260904100508 | 64 | 0 | 0.0 | 0.0 | 0.00 | 0.22 | 0.00 | 95 | 1014.6 |
| 20260904100003 | 64 | 0 | 0.0 | 0.0 | 0.00 | 0.22 | 0.00 | 95 | 1014.6 |
| 20260904095503 | 64 | 0 | 0.0 | 0.0 | 0.00 | 0.22 | 0.00 | 95 | 1014.6 |
| 20260904095003 | 65 | 0 | 0.0 | 0.0 | 0.00 | 0.22 | 0.00 | 95 | 1014.5 |
| 20260904094718 | 65 | 0 | 0.0 | 0.0 | 0.00 | 0.22 | 0.00 | 95 | 1014.5 |
| 20260904094217 | 65 | 0 | 0.0 | 0.0 | 0.00 | 0.22 | 0.00 | 95 | 1014.4 |
| 20260904093503 | 65 | 0 | 0.0 | 0.0 | 0.00 | 0.22 | 0.00 | 95 | 1014.4 |
| 20260904093003 | 65 | 0 | 0.0 | 0.0 | 0.00 | 0.22 | 0.00 | 95 | 1014.5 |
| 20260904092503 | 65 | 0 | 0.0 | 0.0 | 0.00 | 0.22 | 0.00 | 95 | 1014.5 |
| 20260904092003 | 65 | 0 | 0.0 | 0.0 | 0.00 | 0.22 | 0.00 | 95 | 1014.5 |
| 20260904091503 | 65 | 0 | 0.0 | 0.0 | 0.00 | 0.22 | 0.00 | 95 | 1014.5 |
| 20260904091003 | 65 | 0 | 0.0 | 0.0 | 0.00 | 0.22 | 0.00 | 95 | 1014.3 |
| 20260904090503 | 65 | 0 | 0.0 | 0.0 | 0.00 | 0.22 | 0.00 | 95 | 1014.3 |
| 20260904090003 | 65 | 0 | 0.0 | 0.0 | 0.00 | 0.22 | 0.00 | 95 | 1014.3 |
| 20260904085503 | 65 | 0 | 0.0 | 0.0 | 0.00 | 0.22 | 0.00 | 95 | 1014.3 |
| 20260904085003 | 65 | 0 | 0.0 | 0.0 | 0.00 | 0.22 | 0.00 | 95 | 1014.3 |
| 20260904084717 | 65 | 0 | 0.0 | 0.0 | 0.00 | 0.22 | 0.00 | 95 | 1014.3 |
| 20260904084216 | 65 | 0 | 0.0 | 0.0 | 0.00 | 0.22 | 0.00 | 95 | 1014.4 |
| 20260904083503 | 65 | 0 | 0.0 | 0.0 | 0.00 | 0.22 | 0.00 | 95 | 1014.3 |
| 20260904083003 | 65 | 0 | 0.0 | 0.0 | 0.00 | 0.22 | 0.00 | 95 | 1014.2 |
| 20260904082503 | 65 | 0 | 0.0 | 0.0 | 0.00 | 0.22 | 0.00 | 95 | 1014.2 |
| 20260904082216 | 65 | 0 | 0.0 | 0.0 | 0.00 | 0.22 | 0.00 | 95 | 1014.2 |
| 20260904081504 | 65 | 0 | 0.0 | 0.0 | 0.00 | 0.22 | 0.00 | 95 | 1014.1 |
| 20260904081003 | 65 | 0 | 0.0 | 0.0 | 0.00 | 0.22 | 0.00 | 95 | 1014.1 |
| 20260904080503 | 65 | 0 | 0.0 | 0.0 | 0.00 | 0.22 | 0.00 | 95 | 1014.1 |
| 20260904080003 | 65 | 0 | 0.0 | 0.0 | 0.00 | 0.22 | 0.00 | 95 | 1014.0 |
| 20260904075503 | 65 | 0 | 0.0 | 0.0 | 0.00 | 0.22 | 0.00 | 94 | 1014.1 |
| 20260904075003 | 66 | 0 | 0.0 | 0.0 | 0.00 | 0.22 | 0.00 | 94 | 1013.9 |
| 20260904074503 | 66 | 0 | 0.0 | 0.0 | 0.00 | 0.22 | 0.00 | 95 | 1013.8 |
| 20260904074003 | 66 | 0 | 0.0 | 0.0 | 0.00 | 0.22 | 0.00 | 95 | 1013.8 |
| 20260904073503 | 66 | 0 | 0.0 | 0.0 | 0.00 | 0.22 | 0.00 | 95 | 1013.7 |
| 20260904073003 | 66 | 0 | 0.0 | 0.0 | 0.00 | 0.22 | 0.00 | 95 | 1013.8 |
| 20260904072503 | 66 | 0 | 0.0 | 0.0 | 0.00 | 0.22 | 0.00 | 95 | 1013.9 |
| 20260904072003 | 66 | 0 | 0.0 | 0.0 | 0.00 | 0.22 | 0.00 | 95 | 1013.9 |
| 20260904071503 | 66 | 0 | 0.0 | 0.0 | 0.00 | 0.22 | 0.00 | 95 | 1013.8 |
| 20260904071003 | 66 | 0 | 0.0 | 0.0 | 0.00 | 0.22 | 0.00 | 95 | 1013.8 |
| 20260904070503 | 66 | 0 | 0.0 | 0.0 | 0.00 | 0.22 | 0.00 | 95 | 1013.8 |
| 20260904070003 | 67 | 0 | 0.0 | 0.0 | 0.00 | 0.22 | 0.00 | 95 | 1013.8 |
| 20260904065503 | 67 | 0 | 0.0 | 0.0 | 0.00 | 0.22 | 0.00 | 95 | 1013.8 |
| 20260904065003 | 67 | 0 | 0.0 | 0.0 | 0.00 | 0.22 | 0.00 | 95 | 1013.8 |
| 20260904064503 | 67 | 0 | 0.0 | 0.0 | 0.00 | 0.22 | 0.00 | 95 | 1013.8 |
| 20260904064003 | 67 | 0 | 0.0 | 0.0 | 0.00 | 0.22 | 0.00 | 95 | 1013.7 |
| 20260904063717 | 67 | 0 | 0.0 | 0.0 | 0.00 | 0.22 | 0.00 | 95 | 1013.7 |
| 20260904063003 | 67 | 0 | 0.0 | 0.0 | 0.00 | 0.22 | 0.00 | 95 | 1013.6 |
| 20260904062717 | 67 | 0 | 0.0 | 0.0 | 0.00 | 0.22 | 0.00 | 95 | 1013.6 |
| 20260904062003 | 67 | 0 | 0.0 | 0.0 | 0.00 | 0.22 | 0.00 | 95 | 1013.6 |
| 20260904061503 | 67 | 0 | 0.0 | 0.0 | 0.00 | 0.22 | 0.00 | 95 | 1013.5 |
| 20260904061003 | 68 | 0 | 0.0 | 0.0 | 0.00 | 0.22 | 0.00 | 95 | 1013.6 |
| 20260904060503 | 68 | 0 | 0.0 | 0.0 | 0.00 | 0.22 | 0.00 | 95 | 1013.7 |
| 20260904060003 | 68 | 0 | 0.0 | 0.0 | 0.00 | 0.22 | 0.00 | 95 | 1013.8 |
| 20260904055503 | 68 | 0 | 0.0 | 0.0 | 0.00 | 0.22 | 0.00 | 95 | 1013.8 |
| 20260904055217 | 68 | 0 | 0.0 | 0.0 | 0.00 | 0.22 | 0.00 | 95 | 1013.8 |
| 20260904054716 | 68 | 0 | 0.0 | 0.0 | 0.00 | 0.22 | 0.00 | 95 | 1013.9 |
| 20260904054003 | 68 | 0 | 0.0 | 0.0 | 0.00 | 0.22 | 0.00 | 95 | 1014.1 |
| 20260904053503 | 68 | 0 | 0.0 | 0.0 | 0.00 | 0.22 | 0.00 | 95 | 1014.1 |
| 20260904053217 | 68 | 0 | 0.0 | 0.0 | 0.00 | 0.22 | 0.00 | 95 | 1014.1 |
| 20260904052503 | 68 | 0 | 0.0 | 0.0 | 0.00 | 0.22 | 0.00 | 95 | 1014.1 |
| 20260904052003 | 68 | 0 | 0.0 | 0.0 | 0.00 | 0.22 | 0.00 | 95 | 1014.1 |
| 20260904051718 | 68 | 0 | 0.0 | 0.0 | 0.00 | 0.22 | 0.00 | 95 | 1014.2 |
| 20260904051003 | 68 | 0 | 0.0 | 0.0 | 0.00 | 0.22 | 0.00 | 95 | 1014.3 |
| 20260904050503 | 68 | 0 | 0.0 | 0.0 | 0.00 | 0.22 | 0.00 | 95 | 1014.3 |
| 20260904050003 | 69 | 0 | 0.0 | 0.0 | 0.00 | 0.22 | 0.00 | 95 | 1014.2 |
| 20260904045718 | 69 | 0 | 0.0 | 0.0 | 0.00 | 0.22 | 0.00 | 95 | 1014.2 |
| 20260904045003 | 69 | 0 | 0.0 | 0.0 | 0.00 | 0.22 | 0.00 | 95 | 1014.2 |
| 20260904044503 | 69 | 0 | 0.0 | 0.0 | 0.00 | 0.22 | 0.00 | 95 | 1014.2 |
| 20260904044003 | 69 | 0 | 0.0 | 0.0 | 0.00 | 0.22 | 0.00 | 95 | 1014.3 |
| 20260904043718 | 69 | 0 | 0.0 | 0.0 | 0.00 | 0.22 | 0.00 | 95 | 1014.3 |
| 20260904043003 | 69 | 0 | 0.0 | 0.0 | 0.00 | 0.22 | 0.00 | 95 | 1014.3 |
| 20260904042503 | 69 | 0 | 0.0 | 0.0 | 0.00 | 0.22 | 0.00 | 95 | 1014.2 |
| 20260904042003 | 69 | 0 | 0.0 | 0.0 | 0.00 | 0.22 | 0.00 | 95 | 1014.3 |
| 20260904041503 | 69 | 0 | 0.0 | 0.0 | 0.00 | 0.22 | 0.00 | 95 | 1014.3 |
| 20260904041217 | 69 | 0 | 0.0 | 0.0 | 0.00 | 0.22 | 0.00 | 95 | 1014.3 |
| 20260904040503 | 69 | 0 | 0.0 | 0.0 | 0.00 | 0.22 | 0.00 | 95 | 1014.3 |
| 20260904040004 | 69 | 0 | 0.0 | 0.0 | 0.00 | 0.22 | 0.00 | 95 | 1014.2 |
| 20260904035503 | 69 | 0 | 0.0 | 0.0 | 0.00 | 0.22 | 0.22 | 95 | 1014.2 |
| 20260904035003 | 69 | 0 | 0.0 | 0.0 | 0.00 | 0.22 | 0.22 | 95 | 1014.1 |
| 20260904034503 | 69 | 0 | 0.0 | 0.0 | 0.00 | 0.22 | 0.22 | 95 | 1014.0 |
| 20260904034003 | 69 | 0 | 0.0 | 0.0 | 0.00 | 0.22 | 0.22 | 95 | 1013.9 |
| 20260904033503 | 69 | 0 | 0.0 | 0.0 | 0.00 | 0.22 | 0.22 | 95 | 1014.1 |
| 20260904033003 | 69 | 0 | 0.0 | 0.0 | 0.00 | 0.22 | 0.22 | 95 | 1013.9 |
| 20260904032503 | 69 | 0 | 0.0 | 0.0 | 0.00 | 0.22 | 0.22 | 95 | 1014.0 |
| 20260904032003 | 69 | 0 | 0.0 | 0.0 | 0.00 | 0.22 | 0.22 | 95 | 1013.7 |
| 20260904031503 | 69 | 0 | 0.0 | 0.0 | 0.00 | 0.22 | 0.22 | 95 | 1013.7 |
| 20260904031003 | 69 | 0 | 0.0 | 0.0 | 0.00 | 0.22 | 0.22 | 95 | 1013.7 |
| 20260904030503 | 69 | 0 | 0.0 | 0.0 | 0.00 | 0.22 | 0.22 | 95 | 1013.5 |
| 20260904030003 | 69 | 0 | 0.0 | 0.0 | 0.00 | 0.22 | 0.22 | 95 | 1013.5 |
| 20260904025503 | 69 | 0 | 0.0 | 0.0 | 0.00 | 0.22 | 0.22 | 95 | 1013.4 |
| 20260904025003 | 69 | 0 | 0.0 | 0.0 | 0.00 | 0.22 | 0.22 | 95 | 1013.4 |
| 20260904024503 | 69 | 0 | 0.0 | 0.0 | 0.00 | 0.22 | 0.22 | 95 | 1013.4 |
| 20260904024003 | 69 | 0 | 0.0 | 0.0 | 0.00 | 0.22 | 0.22 | 95 | 1013.4 |
| 20260904023503 | 69 | 0 | 0.0 | 0.0 | 0.00 | 0.22 | 0.22 | 94 | 1013.4 |
| 20260904023003 | 69 | 0 | 0.0 | 0.0 | 0.00 | 0.22 | 0.22 | 94 | 1013.5 |
| 20260904022503 | 69 | 0 | 0.0 | 0.0 | 0.00 | 0.22 | 0.22 | 94 | 1013.5 |
| 20260904022003 | 69 | 0 | 0.0 | 0.0 | 0.00 | 0.22 | 0.22 | 95 | 1013.5 |
| 20260904021503 | 69 | 0 | 0.0 | 0.0 | 0.00 | 0.22 | 0.22 | 95 | 1013.5 |
| 20260904021003 | 69 | 0 | 0.0 | 0.0 | 0.00 | 0.22 | 0.22 | 94 | 1013.6 |
| 20260904020503 | 70 | 0 | 0.0 | 0.0 | 0.00 | 0.22 | 0.22 | 94 | 1013.6 |
| 20260904020003 | 70 | 0 | 0.0 | 0.0 | 0.00 | 0.22 | 0.22 | 94 | 1013.6 |
| 20260904015503 | 70 | 0 | 0.0 | 0.0 | 0.00 | 0.22 | 0.22 | 94 | 1013.5 |
| 20260904015003 | 70 | 0 | 0.0 | 0.0 | 0.01 | 0.22 | 0.22 | 94 | 1013.6 |
| 20260904014717 | 70 | 0 | 0.0 | 0.0 | 0.01 | 0.22 | 0.22 | 94 | 1013.5 |
| 20260904014003 | 70 | 0 | 0.0 | 0.0 | 0.01 | 0.22 | 0.22 | 94 | 1013.3 |
| 20260904013717 | 70 | 0 | 0.0 | 0.0 | 0.02 | 0.23 | 0.22 | 94 | 1013.4 |
| 20260904013003 | 70 | 0 | 0.0 | 0.0 | 0.02 | 0.32 | 0.22 | 94 | 1013.4 |
| 20260904012503 | 70 | 0 | 0.0 | 0.0 | 0.02 | 0.42 | 0.22 | 94 | 1013.4 |
| 20260904012003 | 70 | 0 | 0.0 | 0.0 | 0.02 | 0.48 | 0.22 | 94 | 1013.4 |
| 20260904011503 | 71 | 0 | 0.0 | 0.0 | 0.02 | 0.48 | 0.22 | 94 | 1013.2 |
| 20260904011003 | 71 | 0 | 0.0 | 0.0 | 0.02 | 0.48 | 0.22 | 94 | 1013.1 |
| 20260904010503 | 71 | 0 | 0.0 | 0.0 | 0.02 | 0.48 | 0.22 | 94 | 1013.0 |
| 20260904010003 | 71 | 21 | 0.0 | 2.0 | 0.02 | 0.48 | 0.22 | 94 | 1013.0 |
| 20260904005503 | 72 | 16 | 1.0 | 2.0 | 0.03 | 0.48 | 0.22 | 94 | 1013.1 |
| 20260904005003 | 72 | 14 | 0.0 | 2.0 | 0.03 | 0.47 | 0.22 | 94 | 1013.2 |
| 20260904004716 | 72 | 19 | 0.0 | 3.0 | 0.04 | 0.47 | 0.21 | 94 | 1013.2 |
| 20260904004003 | 72 | 357 | 0.0 | 3.0 | 0.12 | 0.47 | 0.21 | 94 | 1013.0 |
| 20260904003503 | 73 | 246 | 0.0 | 1.0 | 0.15 | 0.46 | 0.20 | 94 | 1012.9 |
| 20260904003003 | 73 | 246 | 0.0 | 1.0 | 0.15 | 0.47 | 0.20 | 94 | 1012.5 |
| 20260904002503 | 73 | 246 | 0.0 | 1.0 | 0.15 | 0.47 | 0.20 | 94 | 1012.1 |
| 20260904002217 | 73 | 246 | 0.0 | 1.0 | 0.15 | 0.47 | 0.20 | 94 | 1012.2 |
| 20260904001716 | 73 | 233 | 0.0 | 2.0 | 0.15 | 0.48 | 0.20 | 94 | 1012.2 |
| 20260904001217 | 73 | 227 | 1.0 | 2.0 | 0.15 | 0.49 | 0.20 | 94 | 1012.5 |
| 20260904000506 | 73 | 224 | 1.0 | 2.0 | 0.15 | 0.50 | 0.20 | 94 | 1012.6 |
| 20260904000003 | 73 | 214 | 1.0 | 3.0 | 0.15 | 0.51 | 0.20 | 94 | 1012.7 |
| 20260903235503 | 73 | 208 | 1.0 | 3.0 | 0.14 | 0.51 | 0.19 | 94 | 1012.6 |
| 20260903235217 | 73 | 202 | 1.0 | 3.0 | 0.14 | 0.52 | 0.19 | 94 | 1012.7 |
| 20260903234503 | 74 | 197 | 1.0 | 3.0 | 0.11 | 0.50 | 0.16 | 94 | 1012.8 |
| 20260903234003 | 74 | 210 | 1.0 | 6.0 | 0.04 | 0.44 | 0.09 | 94 | 1012.9 |
| 20260903233503 | 73 | 183 | 1.0 | 6.0 | 0.00 | 0.41 | 0.05 | 93 | 1012.6 |
| 20260903233003 | 73 | 155 | 0.0 | 4.0 | 0.00 | 0.42 | 0.05 | 93 | 1012.7 |
| 20260903232718 | 73 | 157 | 0.0 | 4.0 | 0.00 | 0.43 | 0.05 | 93 | 1012.7 |
| 20260903232003 | 74 | 219 | 0.0 | 1.0 | 0.00 | 0.44 | 0.05 | 93 | 1012.7 |
| 20260903231718 | 74 | 219 | 0.0 | 1.0 | 0.00 | 0.45 | 0.05 | 93 | 1012.7 |
| 20260903231003 | 74 | 219 | 0.0 | 1.0 | 0.00 | 0.62 | 0.05 | 93 | 1012.4 |
| 20260903230503 | 74 | 0 | 0.0 | 0.0 | 0.00 | 0.68 | 0.05 | 93 | 1012.6 |
| 20260903230003 | 74 | 0 | 0.0 | 0.0 | 0.00 | 0.71 | 0.05 | 93 | 1012.5 |
| 20260903225503 | 74 | 0 | 0.0 | 0.0 | 0.00 | 0.72 | 0.05 | 93 | 1012.5 |
| 20260903225003 | 74 | 0 | 0.0 | 0.0 | 0.00 | 0.72 | 0.05 | 93 | 1012.5 |
| 20260903224503 | 74 | 0 | 0.0 | 0.0 | 0.00 | 0.72 | 0.05 | 93 | 1012.6 |
| 20260903224003 | 74 | 0 | 0.0 | 0.0 | 0.00 | 0.72 | 0.05 | 93 | 1012.6 |
| 20260903223503 | 74 | 0 | 0.0 | 0.0 | 0.00 | 0.72 | 0.05 | 93 | 1012.6 |
| 20260903223003 | 74 | 0 | 0.0 | 0.0 | 0.01 | 0.72 | 0.05 | 93 | 1012.7 |
| 20260903222718 | 74 | 0 | 0.0 | 0.0 | 0.01 | 0.72 | 0.05 | 93 | 1012.7 |
| 20260903222003 | 74 | 219 | 0.0 | 1.0 | 0.01 | 0.72 | 0.05 | 93 | 1012.6 |
| 20260903221503 | 74 | 219 | 0.0 | 1.0 | 0.01 | 0.72 | 0.05 | 93 | 1012.6 |
| 20260903221003 | 74 | 219 | 0.0 | 1.0 | 0.01 | 0.72 | 0.05 | 93 | 1012.3 |
| 20260903220503 | 74 | 0 | 0.0 | 0.0 | 0.01 | 0.72 | 0.05 | 93 | 1012.1 |
| 20260903220003 | 74 | 0 | 0.0 | 0.0 | 0.04 | 0.72 | 0.05 | 92 | 1012.0 |
| 20260903215717 | 75 | 0 | 0.0 | 0.0 | 0.04 | 0.72 | 0.05 | 92 | 1012.2 |